Location: Foulognes
(49.1413°N, 0.8183°W)
Time: 22:44:12
(UTC+00:00)

STARLINK-48 - Pass Details

Date: 21 October 2019
Orbit: 506 x 508 km, 53.0° (Epoch: 14 November)

Event Time Altitude Azimuth Distance (km) Brightness Sun altitude
Rises 19:27:46 0° 293° (WNW) 2,612 8.4 -24.4°
Reaches altitude 10° 19:29:58 10° 294° (WNW) 1,725 7.2 -24.7°
Enters shadow 19:32:58 51° 295° (WNW) 642 4.2 -25.2°
